SL-16 DEB

Satellite information

Favourite Embed

Satellite Type and Status

DEBRISIN ORBIT

Key statistics

Satellite SL-16 DEB at a glance.

Uptime

12042

Days in orbit

Revolutions

≈ 14.1

Per day

Orbit

LEO

Low Earth Orbit

Inclination

71.0

Latest

Satellite identification and parameters

Extended collection of information and parameters for SL-16 DEB.

Object identification

Identified? True

Debris? True

Object name: SL-16 DEB

International designator: 1992-093AG

Object number (NORAD): 22343

Object ID (CCSDS): 22343

Country: COMMONWEALTH OF INDEPENDENT STATES (CIS)

Current information (Y/N): Y

RCS size: MEDIUM

Orbital parameters

Period: 101.997 minutes

Inclination: 70.9517 deg

SMA: 7231.357 km

Apoapsis: 919.771 km

Periapsis: 786.673 km

RAAN: 148.1297 deg

Eccentricy: 0.00920282

Argument of periapsis: 106.646 deg

Mean anomaly: 73.8036 deg

Mean motion: 14.11799656 rev/day

Mean motion (dot): 0.00001109 rev/day2

B* drag term: 0.00060885381 1/REarth

Two-line elements (TLE)

Creation date: Dec. 12, 2025, 10:14 a.m.

Reference frame: TEME

Reference center: EARTH

Epoch: Dec. 12, 2025, 5:06 a.m. UTC

TLE line 0: 0 SL-16 DEB

TLE line 1: 1 22343U 92093AG 25346.21318044 .00001109 00000-0 60885-3 0 9991

TLE line 2: 2 22343 70.9517 148.1297 0092028 106.6460 73.8036 14.11799656689819

Live tracking on map

Real-time ground track for satellite SL-16 DEB.

In-orbit conjunctions

A list of the most updated potential collisions computed for object SL-16 DEB.

Target Orbit TCA Probability of collision Miss distance Type
DELTA 1 DEB SSO 2025-07-05 01:24:02 0.0001473413 401.0 (m) DEBRIS
CZ-6A DEB LEO 2024-12-31 17:30:35 0.0001073829 471.0 (m) DEBRIS

Associated space launch

Second generation ELING satellite

SL-16 DEB was lifted into orbit during the mission ‘Zenit-2 | Tselina-2 12’, on board a Zenit-2 space rocket.

The launch took place on Dec. 25, 1992, 5:56 a.m. from 45/1.

For more information about the launch, click the button.

Launch to space Zenit-2 | Tselina-2 12
Zenit-2 | Tselina-2 12

Agency: N/A

Status: Launch Successful

Launch date: Dec. 25, 1992, 5:56 a.m. UTC

Rocket: Zenit-2

Launch pad: 45/1

Location: Baikonur Cosmodrome, Republic of Kazakhstan

...

Latest news about this satellite

There are no fresh news available about this satellite. Check back as we update our databases every day.


Newsletter sign-up

Weekly statistics, charts and insights to help you stay on top of the space industry.